TimeCDT,TemperatureF,Dew PointF,Humidity,Sea Level PressureIn,VisibilityMPH,Wind Direction,Wind SpeedMPH,Gust SpeedMPH,PrecipitationIn,Events,Conditions,WindDirDegrees,DateUTC
12:53 AM,55.0,52.0,89,30.19,10.0,Calm,Calm,-,N/A,,Clear,0,2013-08-17 05:53:00
1:53 AM,54.0,51.1,90,30.19,9.0,Calm,Calm,-,N/A,,Clear,0,2013-08-17 06:53:00
2:53 AM,52.0,48.9,89,30.19,7.0,East,3.5,-,N/A,,Clear,100,2013-08-17 07:53:00
3:53 AM,51.1,48.0,89,30.19,9.0,ESE,3.5,-,N/A,,Clear,110,2013-08-17 08:53:00
4:53 AM,51.1,48.0,89,30.20,9.0,Calm,Calm,-,N/A,,Clear,0,2013-08-17 09:53:00
5:53 AM,50.0,46.9,89,30.20,8.0,Calm,Calm,-,N/A,,Partly Cloudy,0,2013-08-17 10:53:00
6:53 AM,50.0,46.9,89,30.21,6.0,Calm,Calm,-,N/A,,Clear,0,2013-08-17 11:53:00
7:53 AM,59.0,54.0,83,30.20,8.0,SSE,5.8,-,N/A,,Clear,150,2013-08-17 12:53:00
8:53 AM,66.0,55.0,68,30.20,10.0,South,9.2,-,N/A,,Clear,170,2013-08-17 13:53:00
9:53 AM,72.0,55.0,55,30.20,10.0,SSE,12.7,-,N/A,,Clear,160,2013-08-17 14:53:00
10:53 AM,73.9,55.0,52,30.19,10.0,South,12.7,-,N/A,,Clear,190,2013-08-17 15:53:00
11:53 AM,77.0,53.1,43,30.19,10.0,South,15.0,20.7,N/A,,Clear,180,2013-08-17 16:53:00
12:53 PM,78.1,54.0,43,30.18,10.0,SSW,12.7,19.6,N/A,,Scattered Clouds,200,2013-08-17 17:53:00
1:53 PM,79.0,54.0,42,30.16,10.0,SSW,12.7,19.6,N/A,,Partly Cloudy,200,2013-08-17 18:53:00
2:53 PM,81.0,54.0,39,30.15,10.0,South,15.0,19.6,N/A,,Partly Cloudy,180,2013-08-17 19:53:00
3:53 PM,81.0,54.0,39,30.14,10.0,South,13.8,19.6,N/A,,Scattered Clouds,170,2013-08-17 20:53:00
4:53 PM,77.0,53.1,43,30.14,10.0,South,11.5,-,N/A,,Partly Cloudy,170,2013-08-17 21:53:00
5:53 PM,78.1,53.1,42,30.14,10.0,South,10.4,-,N/A,,Clear,180,2013-08-17 22:53:00
6:53 PM,77.0,54.0,45,30.13,10.0,South,8.1,-,N/A,,Clear,190,2013-08-17 23:53:00
7:53 PM,72.0,55.9,57,30.12,10.0,SSE,5.8,-,N/A,,Clear,160,2013-08-18 00:53:00
8:53 PM,64.9,57.0,75,30.12,10.0,South,6.9,-,N/A,,Clear,170,2013-08-18 01:53:00
9:53 PM,61.0,55.0,81,30.13,10.0,SSE,6.9,-,N/A,,Clear,160,2013-08-18 02:53:00
10:53 PM,59.0,54.0,83,30.14,10.0,SSE,5.8,-,N/A,,Clear,150,2013-08-18 03:53:00
11:53 PM,57.9,53.1,84,30.14,10.0,SSE,5.8,-,N/A,,Clear,160,2013-08-18 04:53:00